Overview Statistics Trail Chart Weather Telemetry Raw packets
 

This is the latest recevied weather packets stored in our database for station/object KD8DNS. If no packets are shown the sender has not sent any weather packets the latest 10 day(s).

<< 19 20 21 22 23 24 25 >>
Time Temp. Humidity Pressure Rain* Wind** Luminosity Snow
1788540483 35° C 56% 1019 hPa 0 mm - 620 W/m² -
1788540178 35° C 56% 1019.2 hPa 0 mm - 559 W/m² -
1788539874 35° C 56% 1019 hPa 0 mm - 552 W/m² -
1788539569 34.44° C 58% 1019.1 hPa 0 mm - 588 W/m² -
1788539269 33.89° C 56% 1019 hPa 0 mm - 604 W/m² -
1788538963 33.89° C 57% 1019.2 hPa 0 mm - 601 W/m² -
1788538659 34.44° C 57% 1019.3 hPa 0 mm - 553 W/m² -
1788538358 33.89° C 60% 1019.2 hPa 0 mm - 573 W/m² -
1788538054 33.33° C 60% 1019.3 hPa 0 mm - 570 W/m² -
1788537750 32.78° C 61% 1019.1 hPa 0 mm - 582 W/m² -
1788537449 32.78° C 59% 1019.3 hPa 0 mm - 179 W/m² -
1788537148 33.33° C 59% 1019.3 hPa 0 mm - 177 W/m² -
1788536847 33.33° C 58% 1019.3 hPa 0 mm - 186 W/m² -
1788536543 33.33° C 57% 1019.2 hPa 0 mm - 447 W/m² -
1788536238 33.89° C 56% 1019.2 hPa 0 mm - 242 W/m² -
1788535934 33.33° C 57% 1019.2 hPa 0 mm - 349 W/m² -
1788535630 33.89° C 57% 1019.1 hPa 0 mm - 211 W/m² -
1788535325 33.89° C 57% 1019.2 hPa 0 mm - 510 W/m² -
1788535025 33.89° C 58% 1019.1 hPa 0 mm - 512 W/m² -
1788534724 33.89° C 59% 1018.9 hPa 0 mm - 411 W/m² -
1788534419 33.33° C 59% 1019.3 hPa 0 mm - 436 W/m² -
1788534115 33.89° C 60% 1019.2 hPa 0 mm - 422 W/m² -
1788533813 33.33° C 62% 1019.3 hPa 0 mm - 427 W/m² -
1788533508 32.78° C 63% 1019.1 hPa 0 mm - 448 W/m² -
1788533204 32.22° C 66% 1019.1 hPa 0 mm - 220 W/m² -

* Rain latest hour (hover to see other rain measurements)
** Current wind speed in m/s (hover to see current wind gust speed)